Athens, GA

4:16 AM EDT on March 26, 2017 (GMT -0400)
Athens / Epps

Weather History for KAHN - May, 2013

Change the Weather History Date:

Monday, May 27, 2013

  Actual Average Record
Temperature  
Mean Temperature 72 °F 73 °F  
Max Temperature 87 °F 85 °F 97 °F (1916)
Min Temperature 56 °F 62 °F 40 °F (1961)
Cooling Degree Days 7 8  
Month to date cooling degree days 99 146  
Year to date cooling degree days 141 204  
Growing Degree Days 21 (Base 50)    
Moisture  
Dew Point 57 °F    
Average Humidity 65    
Maximum Humidity 93    
Minimum Humidity 37    
Precipitation  
Precipitation 0.00 in 0.10 in 2.24 in (1963)
Month to date precipitation 3.63 2.60  
Year to date precipitation 23.08 18.71  
Sea Level Pressure  
Sea Level Pressure 30.18 in    
Wind  
Wind Speed 3 mph (ESE)    
Max Wind Speed 8 mph    
Max Gust Speed 13 mph    
Visibility 10 miles    
Events      
T = Trace of Precipitation, MM = Missing Value Source: NWS Daily Summary

Daily Weather History Graph

Daily Weather History Graph

Search for Another Location

Airport or City:

Trip Planner

Search our weather history database for the weather conditions in past years. The results will help you decide how hot, cold, wet, or windy it might be!

Date:

Astronomy

May. 27, 2013 Rise Set
Actual Time 6:24 AM EDT 8:36 PM EDT
Civil Twilight 5:56 AM EDT 9:04 PM EDT
Nautical Twilight 5:21 AM EDT 9:39 PM EDT
Astronomical Twilight 4:44 AM EDT 10:17 PM EDT
Moon 11:18 PM EDT (5/27) 8:59 AM EDT (5/27)
Length of Visible Light 15h 08m
Length of Day
14h 11m
Waning Gibbous, 91% of the Moon is Illuminated
May 27
Waning Gibbous
May 31
Last Quarter
Jun 8
New
Jun 16
First Quarter
Jun 23
Full

Hourly Weather History & Observations

Time (EDT) Temp. Heat Index Dew Point Humidity Pressure Visibility Wind Dir Wind Speed Gust Speed Precip Events Conditions
12:51 AM 60.1 °F - 53.1 °F 78% 30.19 in 10.0 mi Calm Calm - N/A   Clear
1:51 AM 61.0 °F - 53.1 °F 75% 30.18 in 10.0 mi ENE 3.5 mph - N/A   Clear
2:51 AM 57.0 °F - 53.1 °F 87% 30.18 in 10.0 mi East 3.5 mph - N/A   Clear
3:51 AM 57.9 °F - 53.1 °F 84% 30.18 in 10.0 mi Calm Calm - N/A   Clear
4:51 AM 57.9 °F - 53.1 °F 84% 30.19 in 10.0 mi Calm Calm - N/A   Clear
5:51 AM 55.9 °F - 53.1 °F 90% 30.19 in 10.0 mi ENE 3.5 mph - N/A   Clear
6:51 AM 57.0 °F - 53.1 °F 87% 30.22 in 8.0 mi ENE 5.8 mph - N/A   Clear
7:51 AM 62.1 °F - 55.0 °F 78% 30.23 in 9.0 mi ENE 6.9 mph - N/A   Clear
8:51 AM 66.9 °F - 55.9 °F 68% 30.24 in 10.0 mi ENE 4.6 mph - N/A   Clear
9:51 AM 71.1 °F - 57.0 °F 61% 30.24 in 10.0 mi NNE 4.6 mph - N/A   Clear
10:51 AM 75.9 °F - 55.9 °F 50% 30.23 in 10.0 mi Calm Calm - N/A   Clear
11:51 AM 80.1 °F 80.4 °F 57.0 °F 45% 30.22 in 10.0 mi Variable 4.6 mph - N/A   Clear
12:51 PM 82.9 °F 82.4 °F 57.0 °F 41% 30.20 in 10.0 mi Calm Calm - N/A   Clear
1:51 PM 84.9 °F 84.2 °F 57.9 °F 40% 30.19 in 10.0 mi Variable 3.5 mph - N/A   Clear
2:51 PM 86.0 °F 84.9 °F 57.0 °F 37% 30.18 in 10.0 mi Variable 4.6 mph - N/A   Partly Cloudy
3:51 PM 84.0 °F 83.3 °F 57.0 °F 40% 30.15 in 10.0 mi SSW 4.6 mph - N/A   Partly Cloudy
4:51 PM 84.0 °F 83.3 °F 57.0 °F 40% 30.13 in 10.0 mi Variable 5.8 mph - N/A   Clear
5:51 PM 82.0 °F 82.0 °F 57.9 °F 44% 30.14 in 10.0 mi South 4.6 mph - N/A   Clear
6:51 PM 81.0 °F 81.3 °F 59.0 °F 47% 30.14 in 9.0 mi Variable 3.5 mph - N/A   Clear
7:51 PM 78.1 °F - 60.1 °F 54% 30.14 in 9.0 mi South 3.5 mph - N/A   Clear
8:51 PM 75.9 °F - 60.1 °F 58% 30.13 in 9.0 mi SSE 3.5 mph - N/A   Clear
9:51 PM 73.9 °F - 61.0 °F 64% 30.13 in 10.0 mi Calm Calm - N/A   Clear
10:51 PM 69.1 °F - 61.0 °F 75% 30.15 in 9.0 mi Calm Calm - N/A   Clear
11:51 PM 70.0 °F - 60.1 °F 71% 30.16 in 10.0 mi SSE 3.5 mph - N/A   Clear